Notices

What's New in latest Release from April 7th, 2021:

- Updated Glossary, including Speed of Maximum Gust, and Total Hourly Precipitation

- Updated national and regional climate services offices contacts and prices information

- Addition of station inventory lists for 1981-2010, 1971-2000, and 1961-1990 Normals.

If you haven't already, please take our survey and provide feedback about our website: https://eccc.sondage-survey.ca/f/LanguageSelection.aspx?s=442ca660-fcf1-47c0-95a9-59707d6fd709

Hourly Data Report for April 22, 2017

KUGAARUK CLIMATE
NUNAVUT

68°32'15.060" N
89°47'47.020" W
15.80 m
2303094
71407
NBB

Download Data

Hourly Data (April 2017)
Hourly Data Report for April 22, 2017
TIME
LST
Temp Definition
°C
Dew Point Definition
°C
Rel Hum Definition
%
Precip. Amount Definition
mm

Wind Dir Definition
10's deg

Wind Spd Definition
km/h
Visibility Definition
km
Stn Press Definition
kPa
Hmdx Definition


Wind Chill Definition


Weather Definition


00:00 -25.9 -28.8 77 0.0 27 14   102.55   -36 LegendNANA
01:00 -25.6 -28.5 76 0.0 27 17   102.55   -37 LegendNANA
02:00 -25.1 -28.0 77 0.0 26 16   102.54   -36 LegendNANA
03:00 -25.1 -28.1 76 0.0 26 10   102.55   -33 LegendNANA
04:00 -24.1 -27.2 76 0.0 27 12   102.56   -33 LegendNANA
05:00 -24.6 -28.2 72 0.2 27 14   102.53   -34 LegendNANA
06:00 -24.5 -28.8 67 0.0 26 10   102.54   -33 LegendNANA
07:00 -24.3 -29.1 64 0.0 26 9   102.54   -32 LegendNANA
08:00 -23.7 -28.9 62 0.0 25 11   102.53   -32 LegendNANA
09:00 -23.1 -28.6 61 0.0 24 9   102.55   -30 LegendNANA
10:00 -22.6 -28.2 60 0.0 24 10   102.53   -30 LegendNANA
11:00 -22.0 -28.3 57 0.0 25 7   102.57   -28 LegendNANA
12:00 -21.9 -27.7 59 0.0 24 9   102.58   -29 LegendNANA
13:00 -21.3 -27.0 60 0.0 25 7   102.59   -27 LegendNANA
14:00 -21.0 -26.1 63 0.0 24 8   102.59   -27 LegendNANA
15:00 -20.5 -25.4 65 0.0 24 7   102.58   -26 LegendNANA
16:00 -20.2 -24.8 67 0.0 23 7   102.58   -26 LegendNANA
17:00 -20.8 -25.6 65 0.0 23 8   102.57   -27 LegendNANA
18:00 -22.3 -25.9 73 0.0 24 9   102.58   -29 LegendNANA
19:00 -23.3 -26.1 77 0.0 26 6   102.57   -29 LegendNANA
20:00 -21.7 -24.1 81 0.0 25 11   102.54   -30 LegendNANA
21:00 -20.9 -23.5 80 0.0 25 14   102.52   -30 LegendNANA
22:00 -23.5 -26.3 78 0.0 24 19   102.51   -35 LegendNANA
23:00 -21.7 -24.1 81 0.0 24 13   102.49   -30 LegendNANA

Notes on Data Quality.

Legend

  • E = Estimated
  • M = Missing
  • NA = Not Available*
  • [empty] = Indicates an unobserved value
Date modified: